Simultaneous Nadir Overpasses (SNOs) Predictions

Prediction of SNOs between AQUA and METOP-C Satellite Orbit:

Table of predicted SNOs for the next 14.0 days since TLE Epoch: 4/9/2022
Index Date (AQUA) Time (AQUA) Lat,Lon (AQUA) SZA (AQUA ) Date (METOP-C) Time (METOP-C) Lat,Lon (METOP-C) SZA (METOP-C ) Distance(km) Time Diff (sec)
1 04/09/2022 19:59:59 73.40,-124.54 65.57 04/09/2022 19:58:50 73.37,-126.26 65.61 54.99 69
2 04/09/2022 20:49:33 -73.85, 42.13 113.97 04/09/2022 20:49:22 -73.82, 42.11 114.00 3.45 11
3 04/09/2022 21:39:01 73.88,-150.31 66.06 04/09/2022 21:40:01 73.90,-150.38 66.07 2.79 60
4 04/12/2022 15:34:06 73.79, -58.87 64.95 04/12/2022 15:33:03 73.81, -58.83 64.98 2.67 63
5 04/12/2022 16:23:33 -73.87, 108.59 114.98 04/12/2022 16:23:43 -73.86, 108.61 115.00 1.50 10
6 04/12/2022 17:13:07 74.22, -84.57 65.38 04/12/2022 17:14:16 74.24, -83.13 65.35 43.47 69
7 04/15/2022 11:08:05 73.81, 7.61 63.94 04/15/2022 11:07:25 73.80, 7.54 63.95 2.26 40
8 04/15/2022 11:57:32 -73.88, 175.09 115.99 04/15/2022 11:58:04 -73.90, 175.10 115.98 1.66 32
9 04/18/2022 05:52:24 -73.23, -92.29 117.65 04/18/2022 05:51:17 -73.20, -94.74 117.60 79.05 67
10 04/18/2022 06:42:03 73.86, 74.02 63.00 04/18/2022 06:41:45 73.83, 74.03 62.98 3.03 18
11 04/18/2022 07:31:30 -73.93,-118.50 116.94 04/18/2022 07:32:24 -73.93,-118.42 116.95 2.47 54
12 04/21/2022 01:26:32 -73.79, -26.94 118.04 04/21/2022 01:25:27 -73.77, -27.03 118.04 3.26 65
13 04/21/2022 02:16:00 73.84, 140.58 62.01 04/21/2022 02:16:06 73.85, 140.49 62.02 2.93 6



Historial Predications of SNOs between AQUA and METOP-C
